• în România
  • Lista ţărilor
  • Pe 7 zile
  • Temperatura apei
  • Hartă satelitară
  • Meteo pe hartă
  • Widget-uri
  • user-avatar
    Intrare

    Meteo pe oră la Satu Mare

    Astăzi, 21 Noiembrie, Marţi

    Timp Temperatura Precipitaţii Vânt Presiune Umiditate
    00:00 +1°C° 0 mm 2 m/s 751 mmHg 87%
    01:00 +1°C° 0 mm 2 m/s 751 mmHg 88%
    02:00 -1°C° 0 mm 2 m/s 751 mmHg 89%
    03:00 -1°C° 0 mm 2 m/s 751 mmHg 89%
    04:00 +1°C° 0 mm 2 m/s 751 mmHg 89%
    05:00 +1°C° 0 mm 2 m/s 751 mmHg 89%
    06:00 +1°C° 0,1 mm 2 m/s 751 mmHg 89%
    07:00 +1°C° 0,1 mm 2 m/s 751 mmHg 88%
    08:00 +1°C° 0,1 mm 2 m/s 751 mmHg 88%
    09:00 +2°C° 0,3 mm 2 m/s 751 mmHg 87%
    10:00 +2°C° 0,3 mm 2 m/s 751 mmHg 85%
    11:00 +2°C° 0,3 mm 3 m/s 751 mmHg 84%
    12:00 +2°C° 0,2 mm 3 m/s 751 mmHg 84%
    13:00 +2°C° 0,2 mm 3 m/s 751 mmHg 84%
    14:00 +3°C° 0,2 mm 3 m/s 751 mmHg 84%
    15:00 +2°C° 0,2 mm 3 m/s 751 mmHg 86%
    16:00 +3°C° 0,2 mm 2 m/s 751 mmHg 87%
    17:00 +3°C° 0,2 mm 2 m/s 751 mmHg 89%
    18:00 +3°C° 0,2 mm 2 m/s 751 mmHg 89%
    19:00 +3°C° 0,2 mm 2 m/s 751 mmHg 89%
    20:00 +3°C° 0,2 mm 2 m/s 751 mmHg 89%
    21:00 +3°C° 0,3 mm 2 m/s 751 mmHg 90%
    22:00 +3°C° 0,3 mm 2 m/s 751 mmHg 90%
    23:00 +3°C° 0,3 mm 2 m/s 751 mmHg 91%

    Mâine, 22 Noiembrie, Miercuri

    Timp Temperatura Precipitaţii Vânt Presiune Umiditate
    00:00 +3°C° 0,4 mm 2 m/s 751 mmHg 92%
    01:00 +3°C° 0,4 mm 2 m/s 751 mmHg 93%
    02:00 +3°C° 0,4 mm 2 m/s 751 mmHg 94%
    03:00 +3°C° 0,2 mm 2 m/s 750 mmHg 94%
    04:00 +3°C° 0,2 mm 2 m/s 750 mmHg 95%
    05:00 +3°C° 0,2 mm 2 m/s 750 mmHg 95%
    06:00 +3°C° 0,2 mm 2 m/s 750 mmHg 95%
    07:00 +4°C° 0,2 mm 2 m/s 750 mmHg 95%
    08:00 +4°C° 0,2 mm 2 m/s 750 mmHg 95%
    09:00 +4°C° 0,1 mm 2 m/s 751 mmHg 95%
    10:00 +4°C° 0,1 mm 2 m/s 751 mmHg 94%
    11:00 +5°C° 0,1 mm 2 m/s 751 mmHg 93%
    12:00 +5°C° 0,1 mm 2 m/s 751 mmHg 93%
    13:00 +5°C° 0,1 mm 2 m/s 751 mmHg 93%
    14:00 +6°C° 0,1 mm 2 m/s 751 mmHg 93%
    15:00 +6°C° 0,1 mm 2 m/s 751 mmHg 93%
    16:00 +6°C° 0,1 mm 2 m/s 751 mmHg 94%
    17:00 +6°C° 0,1 mm 2 m/s 751 mmHg 94%
    18:00 +6°C° 0 mm 2 m/s 751 mmHg 94%
    19:00 +5°C° 0 mm 2 m/s 752 mmHg 94%
    20:00 +5°C° 0 mm 2 m/s 752 mmHg 94%
    21:00 +5°C° 0 mm 2 m/s 752 mmHg 94%
    22:00 +5°C° 0 mm 2 m/s 752 mmHg 94%
    23:00 +5°C° 0 mm 2 m/s 752 mmHg 94%

    Poimâine, 23 Noiembrie, Joi

    Timp Temperatura Precipitaţii Vânt Presiune Umiditate
    00:00 +5°C° 0 mm 2 m/s 752 mmHg 94%
    01:00 +4°C° 0 mm 2 m/s 752 mmHg 94%
    02:00 +4°C° 0 mm 2 m/s 753 mmHg 94%
    03:00 +4°C° 0 mm 2 m/s 753 mmHg 94%
    04:00 +4°C° 0 mm 2 m/s 753 mmHg 94%
    05:00 +4°C° 0 mm 2 m/s 753 mmHg 94%
    06:00 +5°C° 0 mm 2 m/s 753 mmHg 94%
    07:00 +5°C° 0 mm 2 m/s 754 mmHg 94%
    08:00 +5°C° 0 mm 2 m/s 754 mmHg 93%
    09:00 +5°C° 0 mm 2 m/s 754 mmHg 92%
    10:00 +6°C° 0 mm 2 m/s 754 mmHg 90%
    11:00 +7°C° 0 mm 2 m/s 755 mmHg 88%
    12:00 +7°C° 0 mm 2 m/s 755 mmHg 87%
    13:00 +9°C° 0 mm 1 m/s 755 mmHg 86%
    14:00 +9°C° 0 mm 1 m/s 755 mmHg 85%
    15:00 +9°C° 0 mm 1 m/s 755 mmHg 87%
    16:00 +8°C° 0 mm 1 m/s 755 mmHg 89%
    17:00 +8°C° 0 mm 1 m/s 755 mmHg 90%
    18:00 +8°C° 0 mm 1 m/s 756 mmHg 91%
    19:00 +8°C° 0 mm 1 m/s 756 mmHg 91%
    20:00 +8°C° 0 mm 1 m/s 756 mmHg 91%
    21:00 +7°C° 0 mm 1 m/s 756 mmHg 91%
    22:00 +7°C° 0 mm 1 m/s 757 mmHg 91%
    23:00 +7°C° 0 mm 1 m/s 757 mmHg 91%

    24 Noiembrie, Vineri

    Timp Temperatura Precipitaţii Vânt Presiune Umiditate
    00:00 +7°C° 0 mm 1 m/s 757 mmHg 91%
    01:00 +7°C° 0 mm 1 m/s 757 mmHg 91%
    02:00 +7°C° 0 mm 1 m/s 757 mmHg 91%
    03:00 +7°C° 0 mm 1 m/s 757 mmHg 91%
    04:00 +7°C° 0 mm 1 m/s 757 mmHg 90%
    05:00 +7°C° 0 mm 1 m/s 757 mmHg 90%
    06:00 +7°C° 0 mm 1 m/s 757 mmHg 90%
    07:00 +7°C° 0 mm 1 m/s 757 mmHg 90%
    08:00 +7°C° 0 mm 1 m/s 757 mmHg 90%
    09:00 +8°C° 0 mm 1 m/s 758 mmHg 86%
    10:00 +9°C° 0 mm 1 m/s 758 mmHg 83%
    11:00 +10°C° 0 mm 1 m/s 758 mmHg 79%
    12:00 +10°C° 0 mm 1 m/s 757 mmHg 77%
    13:00 +11°C° 0 mm 1 m/s 757 mmHg 75%
    14:00 +12°C° 0 mm 1 m/s 757 mmHg 73%
    15:00 +11°C° 0 mm 1 m/s 757 mmHg 77%
    16:00 +10°C° 0 mm 1 m/s 757 mmHg 81%
    17:00 +9°C° 0 mm 1 m/s 758 mmHg 86%
    18:00 +8°C° 0 mm 1 m/s 758 mmHg 87%
    19:00 +8°C° 0 mm 1 m/s 758 mmHg 88%
    20:00 +7°C° 0 mm 1 m/s 759 mmHg 89%
    21:00 +6°C° 0 mm 2 m/s 759 mmHg 89%
    22:00 +6°C° 0 mm 2 m/s 759 mmHg 90%
    23:00 +5°C° 0 mm 2 m/s 759 mmHg 90%

    25 Noiembrie, Sâmbătă

    Timp Temperatura Precipitaţii Vânt Presiune Umiditate
    00:00 +5°C° 0 mm 2 m/s 759 mmHg 90%
    01:00 +5°C° 0 mm 2 m/s 759 mmHg 90%
    02:00 +5°C° 0 mm 2 m/s 759 mmHg 90%
    03:00 +5°C° 0 mm 2 m/s 759 mmHg 90%
    04:00 +4°C° 0 mm 2 m/s 759 mmHg 90%
    05:00 +4°C° 0 mm 2 m/s 759 mmHg 90%
    06:00 +4°C° 0 mm 2 m/s 759 mmHg 89%
    07:00 +4°C° 0 mm 2 m/s 759 mmHg 89%
    08:00 +4°C° 0 mm 2 m/s 759 mmHg 89%
    09:00 +5°C° 0 mm 2 m/s 759 mmHg 84%
    10:00 +6°C° 0 mm 2 m/s 759 mmHg 79%
    11:00 +8°C° 0 mm 2 m/s 759 mmHg 74%
    12:00 +9°C° 0 mm 2 m/s 758 mmHg 71%
    13:00 +9°C° 0 mm 2 m/s 758 mmHg 68%
    14:00 +10°C° 0 mm 2 m/s 757 mmHg 66%
    15:00 +9°C° 0 mm 2 m/s 757 mmHg 71%
    16:00 +8°C° 0 mm 2 m/s 757 mmHg 75%
    17:00 +7°C° 0 mm 2 m/s 757 mmHg 80%
    18:00 +6°C° 0 mm 2 m/s 757 mmHg 80%
    19:00 +6°C° 0 mm 2 m/s 757 mmHg 80%
    20:00 +6°C° 0 mm 2 m/s 757 mmHg 81%
    21:00 +6°C° 0 mm 2 m/s 757 mmHg 80%
    22:00 +5°C° 0 mm 2 m/s 757 mmHg 79%
    23:00 +5°C° 0 mm 2 m/s 757 mmHg 78%

    26 Noiembrie, Duminică

    Timp Temperatura Precipitaţii Vânt Presiune Umiditate
    00:00 +5°C° 0 mm 2 m/s 757 mmHg 77%
    01:00 +5°C° 0 mm 2 m/s 757 mmHg 76%
    02:00 +5°C° 0 mm 2 m/s 757 mmHg 76%
    03:00 +5°C° 0 mm 2 m/s 756 mmHg 76%
    04:00 +5°C° 0 mm 2 m/s 756 mmHg 75%
    05:00 +5°C° 0 mm 2 m/s 756 mmHg 75%
    06:00 +5°C° 0 mm 2 m/s 756 mmHg 75%
    07:00 +5°C° 0 mm 2 m/s 756 mmHg 74%
    08:00 +6°C° 0 mm 2 m/s 756 mmHg 74%
    09:00 +6°C° 0 mm 2 m/s 756 mmHg 74%
    10:00 +6°C° 0 mm 2 m/s 756 mmHg 74%
    11:00 +7°C° 0 mm 2 m/s 756 mmHg 75%
    12:00 +7°C° 0 mm 2 m/s 756 mmHg 75%
    13:00 +7°C° 0 mm 2 m/s 756 mmHg 75%
    14:00 +8°C° 0 mm 2 m/s 756 mmHg 75%
    15:00 +7°C° 0,1 mm 2 m/s 756 mmHg 77%
    16:00 +8°C° 0,1 mm 1 m/s 756 mmHg 79%
    17:00 +8°C° 0,1 mm 1 m/s 756 mmHg 82%
    18:00 +8°C° 0,4 mm 1 m/s 756 mmHg 84%
    19:00 +8°C° 0,4 mm 1 m/s 756 mmHg 86%
    20:00 +7°C° 0,4 mm 2 m/s 756 mmHg 89%
    21:00 +8°C° 0,6 mm 1 m/s 756 mmHg 90%
    22:00 +7°C° 0,6 mm 1 m/s 757 mmHg 92%
    23:00 +7°C° 0,6 mm 1 m/s 757 mmHg 93%
    Arată mai mult